STARLINK-5142, 53984

Orbit data source: Space-Track

STARLINK-5142, 53984 is a payload satellite owned by SpaceX/Seattle (US) in LEO that was launched on Wed, 05 Oct 2022 UTC via an FALCON 9 launch vehicle from the Air Force Western Test Range (AFWTR). Payload-class satellites include a variety of spacecraft equipped with specific instruments for various scientific and technological missions. These include communications satellites like Starlink; space stations such as the ISS; scientific satellites like the Hubble; Earth observation satellites from companies like Planet Labs, Umbra, and HawkEye 360; GPS; miniature CubeSats for education and research; and military/defense satellites.

Loading next visibility...
Identifier
53984, 2022-125W
Orbit
LEO
Country
Flag of USUS
Related business
Manufacturer
SpaceX/Seattle
Mission
Operational Commercial Communications
Bus & Motor
STARLINK, Unknown motor
Mass
305 kg wet, ~290 kg dry
Launch date (UTC)
2022-10-05 (4 years ago)
Launch vehicle
FALCON 9
Launch site
Air Force Western Test Range (AFWTR)
Object type
Payload
Rocket body
Debris
Shape & HBR
Box + 1 Pan, 10.1 m
Radar Cross Section
13.562 m², Large (>1 m²)

Expand to show TLE details & history
Last TLE update: 3 days ago

TLE from 3 days ago
0 STARLINK-5142
1 53984U 22125W   26170.58872646  .00000624  00000-0  57322-4 0  9998
2 53984  53.1617 116.7232 0001320  79.5826 280.5314 15.08825215204847
Epoch: 2026-06-19T14:07Z
TLE epoch observation values (Epoch: 2026-06-19T14:07:45.966Z)
Latitude
-0.00002°
Longitude
-3.03388°
Altitude
540.513 km
Speed
7.593 km/s
True Right ascension
07h 46m 53s
True Declination
0° 00' 00"
Sunlit
Object was in daylight at epoch
Visualization orbit readout
Latitude
Unknown
Longitude
Unknown
Altitude
Unknown
Speed
Unknown
Apparent Right ascension
Unknown
Apparent Declination
Unknown
Sunlit
N/A
Visualization observer readout
Local Sidereal Time
21:31:43
Azimuth
Unknown
Elevation
Unknown
Doppler factor
Unknown
Orbital elements
Apogee altitude
540.956 km
Perigee altitude
539.129 km
Semi-major axis
6,918.179 km
Eccentricity
0.00013
Inclination
53.1617°
RAAN
116.7232°
Arg. of periapsis
79.5826°
True anomaly
280.51653°
Mean anomaly
280.5314°
Eccentric anomaly
280.52396°
Mean motion
3.77186 °/min
Orbital period
95.44 mins
BSTAR
0.000057322
Loading maneuver chart data...
Computing Atmospheric mass density...
Loading historical data...
Loading historical data...
Loading historical data...
Loading historical data...
Loading historical data...
Loading historical data...
Loading historical data...

Documentation

Showing up to 5 results
|